sat.trackr.live / text

‹ back to catalog

2025-108C

NORAD 64089 · 2025-108C

PAYLOAD ACTIVE UNKNOWN

§ Identity

Operator
Country
PRC
Launch date
2025-05-21
Launch site
JSC
Launch vehicle
Mass (kg)
RCS (m²)

External: N2YO · Heavens-Above · Gunter

§ Orbital elements

Epoch: 2026-09-21T22:09:55.627200Z

Period
95.18 min
Inclination
97.4611°
Eccentricity
0.0006448
Mean motion
15.12980297 rev/d
Perigee alt
522.7 km
Apogee alt
531.6 km
Semi-major
6,905.3 km
B*
1.3877e-4
RAAN
337.0488°
Arg perigee
76.0542°
Mean anomaly
284.1406°
Rev number
7,389

§ Raw data

2025-108C1 64089U 25108C   26264.92356050  .00002385  00000+0  13877-3 0  99992 64089  97.4611 337.0488 0006448  76.0542 284.1406 15.12980297 73892

JSON: /api/v1/satellites/64089 · /tle

For live sub-satellite position, see the globe view (requires WebGL).

§ Visibility from observer

Set your observer location to see the next 7 days of passes ≥ 10°. The values pass through the URL so the page stays shareable.

No JS? Fill the form by hand. The geolocation button needs JavaScript.